Regional Weather Roundup
Issued by NWS

Home | Current Version | Previous Version | Text Only | Print | Product List | Glossary Off
Versions: 1 2 3 4 5 6 7 8 9 10 11 12 13 14 15 16 17 18 19 20 21 22 23 24 25 26 27 28 29 30 31 32 33 34 35 36 37 38 39 40 41 42 43 44 45 46 47 48 49 50

000
ASUS43 KLMK 181502
RWRKY
KENTUCKY REGIONAL WEATHER ROUNDUP
NATIONAL WEATHER SERVICE LOUISVILLE KY
1100 AM EDT THU SEP 18 2014

NOTE "FAIR" INDICATES FEW OR NO CLOUDS BELOW 12,000 FEET
WITH NO SIGNIFICANT WEATHER AND/OR OBSTRUCTIONS TO VISIBILITY.

KYZ001>023-026-027-061>063-070>075-181600-
WESTERN AND SOUTH CENTRAL KENTUCKY

CITY           SKY/WX    TMP DP  RH WIND       PRES   REMARKS
PADUCAH        CLOUDY    72  59  63 E6        30.03R
HENDERSON      PTSUNNY   66  55  68 NE8       30.07R
OWENSBORO      PTSUNNY   66  54  65 E9        30.07R
HOPKINSVILLE   PTSUNNY   68  59  72 E6        30.04R
BOWLING GREEN  PTSUNNY   67  57  70 E5        30.05R
GLASGOW        PTSUNNY   68  56  65 NE5       30.05R
$$

KYZ024-025-028>034-038-045-046-053-181600-
NORTH CENTRAL KENTUCKY

CITY           SKY/WX    TMP DP  RH WIND       PRES   REMARKS
LOUISVILLE/SDF PTSUNNY   67  51  56 E10       30.08R
LOUISVILLE/LOU MOSUNNY   66  51  58 NE6       30.09R
FORT KNOX      CLOUDY    62  52  69 NE10      30.07R
$$

KYZ035>037-039>044-047>052-055>060-089>105-181600-
NORTHEAST KENTUCKY

CITY           SKY/WX    TMP DP  RH WIND       PRES   REMARKS
LEXINGTON      SUNNY     68  53  58 NE6       30.08R
COVINGTON      SUNNY     65  50  58 NE9       30.10R
FRANKFORT      SUNNY     64  51  62 NE9       30.08R
$$

KYZ054-064>069-076>088-106>120-181600-
SOUTHEAST KENTUCKY

CITY           SKY/WX    TMP DP  RH WIND       PRES   REMARKS
JACKSON        MOSUNNY   64  55  72 CALM      30.07R
LONDON         SUNNY     67  56  67 NE8       30.07R
SOMERSET       NOT AVBL
MIDDLESBORO    CLOUDY    63  58  85 CALM      30.07R
MONTICELLO     SUNNY     71  58  63 NE5       30.07R
$$




USA.gov is the U.S. government's official web portal to all federal, state and local government web resources and services.